TimeEDT,TemperatureF,Dew PointF,Humidity,Sea Level PressureIn,VisibilityMPH,Wind Direction,Wind SpeedMPH,Gust SpeedMPH,PrecipitationIn,Events,Conditions,WindDirDegrees,DateUTC
12:15 AM,-9999,-9999,N/A,29.97,10.0,SW,4.6,-,N/A,,Clear,220,2013-06-15 04:15:00
12:35 AM,-9999,-9999,N/A,29.98,10.0,SW,3.5,-,N/A,,Clear,230,2013-06-15 04:35:00
12:55 AM,-9999,-9999,N/A,29.97,10.0,SW,3.5,-,N/A,,Clear,220,2013-06-15 04:55:00
1:15 AM,-9999,-9999,N/A,29.98,10.0,Calm,Calm,-,N/A,,Scattered Clouds,0,2013-06-15 05:15:00
1:35 AM,-9999,-9999,N/A,29.98,10.0,SW,3.5,-,N/A,,Scattered Clouds,220,2013-06-15 05:35:00
1:55 AM,-9999,-9999,N/A,29.97,10.0,Calm,Calm,-,N/A,,Scattered Clouds,0,2013-06-15 05:55:00
2:15 AM,-9999,-9999,N/A,29.97,10.0,Calm,Calm,-,N/A,,Clear,0,2013-06-15 06:15:00
2:35 AM,-9999,-9999,N/A,29.96,10.0,Calm,Calm,-,N/A,,Clear,0,2013-06-15 06:35:00
2:55 AM,-9999,-9999,N/A,29.96,10.0,Calm,Calm,-,N/A,,Clear,0,2013-06-15 06:55:00
3:15 AM,-9999,-9999,N/A,29.96,10.0,Calm,Calm,-,N/A,,Clear,0,2013-06-15 07:15:00
3:35 AM,-9999,-9999,N/A,29.96,10.0,Calm,Calm,-,N/A,,Clear,0,2013-06-15 07:35:00
3:55 AM,-9999,-9999,N/A,29.95,10.0,Calm,Calm,-,N/A,,Clear,0,2013-06-15 07:55:00
4:15 AM,-9999,-9999,N/A,29.96,10.0,Calm,Calm,-,N/A,,Clear,0,2013-06-15 08:15:00
4:35 AM,-9999,-9999,N/A,29.96,10.0,Calm,Calm,-,N/A,,Clear,0,2013-06-15 08:35:00
4:55 AM,-9999,-9999,N/A,29.96,7.0,Calm,Calm,-,N/A,,Clear,0,2013-06-15 08:55:00
5:15 AM,-9999,-9999,N/A,29.98,10.0,Calm,Calm,-,N/A,,Scattered Clouds,0,2013-06-15 09:15:00
5:35 AM,-9999,-9999,N/A,29.98,10.0,Calm,Calm,-,N/A,,Clear,0,2013-06-15 09:35:00
5:55 AM,-9999,-9999,N/A,29.99,7.0,Calm,Calm,-,N/A,,Clear,0,2013-06-15 09:55:00
6:15 AM,-9999,-9999,N/A,30.00,7.0,Calm,Calm,-,N/A,,Clear,0,2013-06-15 10:15:00
6:35 AM,-9999,-9999,N/A,30.01,7.0,Calm,Calm,-,N/A,,Scattered Clouds,0,2013-06-15 10:35:00
6:55 AM,-9999,-9999,N/A,30.00,7.0,South,5.8,-,N/A,,Clear,190,2013-06-15 10:55:00
7:15 AM,-9999,-9999,N/A,30.00,7.0,South,3.5,-,N/A,,Clear,180,2013-06-15 11:15:00
7:35 AM,-9999,-9999,N/A,30.02,7.0,Calm,Calm,-,N/A,,Scattered Clouds,0,2013-06-15 11:35:00
7:55 AM,-9999,-9999,N/A,30.03,7.0,Calm,Calm,-,N/A,,Overcast,0,2013-06-15 11:55:00
8:15 AM,-9999,-9999,N/A,30.03,4.0,Calm,Calm,-,N/A,,Haze,0,2013-06-15 12:15:00
8:35 AM,-9999,-9999,N/A,30.03,7.0,Calm,Calm,-,N/A,,Scattered Clouds,0,2013-06-15 12:35:00
8:55 AM,-9999,-9999,N/A,30.04,10.0,Calm,Calm,-,N/A,,Clear,0,2013-06-15 12:55:00
9:15 AM,-9999,-9999,N/A,30.04,10.0,Calm,Calm,-,N/A,,Clear,0,2013-06-15 13:15:00
9:35 AM,-9999,-9999,N/A,30.04,10.0,SSW,3.5,-,N/A,,Clear,210,2013-06-15 13:35:00
9:55 AM,-9999,-9999,N/A,30.04,10.0,WSW,3.5,-,N/A,,Clear,250,2013-06-15 13:55:00
10:15 AM,-9999,-9999,N/A,30.04,10.0,Calm,Calm,-,N/A,,Clear,0,2013-06-15 14:15:00
10:35 AM,-9999,-9999,N/A,30.05,10.0,WSW,5.8,-,N/A,,Scattered Clouds,250,2013-06-15 14:35:00
10:55 AM,-9999,-9999,N/A,30.06,10.0,WSW,5.8,-,N/A,,Mostly Cloudy,250,2013-06-15 14:55:00
11:15 AM,-9999,-9999,N/A,30.06,10.0,WNW,4.6,-,N/A,,Scattered Clouds,290,2013-06-15 15:15:00
11:35 AM,-9999,-9999,N/A,30.06,10.0,West,3.5,-,N/A,,Scattered Clouds,280,2013-06-15 15:35:00
11:55 AM,-9999,-9999,N/A,30.07,10.0,WSW,4.6,-,N/A,,Scattered Clouds,240,2013-06-15 15:55:00
12:15 PM,-9999,-9999,N/A,30.06,10.0,Calm,Calm,-,N/A,,Scattered Clouds,0,2013-06-15 16:15:00
12:35 PM,-9999,-9999,N/A,-9999,-9999.0,North,-9999.0,-,N/A,,Unknown,0,2013-06-15 16:35:00
12:55 PM,-9999,-9999,N/A,-9999,-9999.0,North,-9999.0,-,N/A,,Unknown,0,2013-06-15 16:55:00
1:15 PM,-9999,-9999,N/A,-9999,-9999.0,North,-9999.0,-,N/A,,Unknown,0,2013-06-15 17:15:00
1:35 PM,-9999,-9999,N/A,-9999,-9999.0,North,-9999.0,-,N/A,,Unknown,0,2013-06-15 17:35:00
1:55 PM,89.6,73.4,59,30.04,-9999.0,West,4.6,-,0.03,,Scattered Clouds,260,2013-06-15 17:55:00
2:15 PM,91.4,73.4,55,30.04,10.0,West,4.6,-,N/A,,Scattered Clouds,280,2013-06-15 18:15:00
2:35 PM,91.4,71.6,52,30.03,10.0,Calm,Calm,-,N/A,,Scattered Clouds,0,2013-06-15 18:35:00
2:55 PM,91.4,73.4,55,30.03,10.0,WNW,4.6,-,N/A,,Mostly Cloudy,300,2013-06-15 18:55:00
3:15 PM,91.4,73.4,55,30.02,10.0,West,6.9,-,N/A,,Scattered Clouds,260,2013-06-15 19:15:00
3:35 PM,91.4,73.4,55,30.02,10.0,NNW,3.5,-,N/A,,Scattered Clouds,330,2013-06-15 19:35:00
3:55 PM,91.4,71.6,52,30.01,10.0,Calm,Calm,-,N/A,,Scattered Clouds,0,2013-06-15 19:55:00
4:15 PM,91.4,71.6,52,30.01,10.0,WSW,4.6,-,N/A,,Mostly Cloudy,250,2013-06-15 20:15:00
4:35 PM,89.6,73.4,59,30.00,10.0,West,3.5,-,N/A,,Overcast,260,2013-06-15 20:35:00
4:55 PM,87.8,75.2,66,30.02,7.0,NNW,9.2,-,0.09,Rain,Heavy Rain,340,2013-06-15 20:55:00
5:15 PM,80.6,80.6,100,30.02,3.0,ENE,16.1,25.3,0.17,Rain,Heavy Rain,60,2013-06-15 21:15:00
5:35 PM,77.0,-9999,N/A,30.03,2.0,East,5.8,19.6,0.36,Rain,Heavy Rain,90,2013-06-15 21:35:00
5:55 PM,77.0,-9999,N/A,30.03,5.0,Calm,Calm,-,0.58,Rain,Rain,0,2013-06-15 21:55:00
6:15 PM,78.8,-9999,N/A,30.04,5.0,NNE,4.6,-,0.04,Rain,Heavy Rain,20,2013-06-15 22:15:00
6:35 PM,77.0,-9999,N/A,30.04,4.0,North,4.6,-,0.21,Rain,Heavy Rain,350,2013-06-15 22:35:00
6:55 PM,77.0,-9999,N/A,30.04,5.0,Calm,Calm,-,0.24,Rain,Light Rain,0,2013-06-15 22:55:00
7:15 PM,77.0,-9999,N/A,30.06,5.0,East,4.6,-,N/A,Rain,Rain,80,2013-06-15 23:15:00
7:35 PM,77.0,-9999,N/A,30.07,3.0,NNE,4.6,-,0.11,Rain,Rain,30,2013-06-15 23:35:00
7:55 PM,77.0,-9999,N/A,30.06,7.0,Calm,Calm,-,0.13,,Overcast,0,2013-06-15 23:55:00
8:15 PM,77.0,-9999,N/A,30.06,10.0,Calm,Calm,-,N/A,,Overcast,0,2013-06-16 00:15:00
8:35 PM,77.0,-9999,N/A,30.06,10.0,Calm,Calm,-,N/A,,Overcast,0,2013-06-16 00:35:00
8:55 PM,77.0,-9999,N/A,30.05,10.0,Calm,Calm,-,N/A,,Overcast,0,2013-06-16 00:55:00
9:15 PM,77.0,-9999,N/A,30.07,10.0,Calm,Calm,-,N/A,,Overcast,0,2013-06-16 01:15:00
9:35 PM,77.0,-9999,N/A,30.07,10.0,East,4.6,-,N/A,,Overcast,80,2013-06-16 01:35:00
9:55 PM,77.0,-9999,N/A,30.07,10.0,Calm,Calm,-,N/A,,Overcast,0,2013-06-16 01:55:00
10:15 PM,78.8,-9999,N/A,30.07,7.0,ENE,3.5,-,N/A,,Overcast,70,2013-06-16 02:15:00
10:35 PM,78.8,-9999,N/A,30.08,7.0,ENE,3.5,-,N/A,,Overcast,70,2013-06-16 02:35:00
10:55 PM,78.8,-9999,N/A,30.08,7.0,North,-9999.0,-,N/A,,Overcast,0,2013-06-16 02:55:00
11:15 PM,78.8,-9999,N/A,30.08,7.0,East,4.6,-,N/A,,Scattered Clouds,90,2013-06-16 03:15:00
11:35 PM,78.8,-9999,N/A,30.09,10.0,East,5.8,-,N/A,,Mostly Cloudy,80,2013-06-16 03:35:00
11:55 PM,77.0,-9999,N/A,30.09,7.0,Calm,Calm,-,N/A,,Mostly Cloudy,0,2013-06-16 03:55:00